Location: Calgary
(51.0833°N, 114.0833°W)
Time: 01:12:56
(UTC-06:00)

Tiangong 2 - Visible Passes

Search period start: 18 July 2018 00:00
Search period end: 28 July 2018 00:00
Orbit: 386 x 394 km, 42.8° (Epoch: 17 July)

Date Brightness Start Highest point End Pass type
(mag) Time Alt. Az. Time Alt. Az. Time Alt. Az.
18 Jul 3.6 00:01:48 10° SW 00:01:54 10° SW 00:01:54 10° SW visible
18 Jul 3.1 23:03:45 10° SW 23:05:38 15° SSW 23:06:37 13° S visible
20 Jul 3.5 22:45:43 10° SW 22:46:48 11° SSW 22:47:53 10° S visible
